Location: Torch Lake Township
(45.0753°N, 85.3586°W)
Time: 01:15:36
(UTC-04:00)

Amateur Radio Satellites - All Passes

Search period start: 25 July 2014 00:45
Search period end: 26 July 2014 00:45
Location: Torch Lake Township, 45.0753°N, 85.3586°W

Satellite Date Start Highest point End Downlink Frequencies (MHz)
Time Altitude Azimuth
FUNcube-1 25 Jul 00:50:57 00:51:48 11° 272° (W) 00:52:39 145.950 - 145.970 MHz USB
UOSAT-12 25 Jul 00:56:02 01:00:46 67° 52° (NE) 01:05:26 437.025 FM, 437.400 FM
RS-15 25 Jul 00:58:06 01:08:49 60° 245° (WSW) 01:19:56 29.354 - 29.394 USB, Beacon 29.352 USB
Lituanica SAT-1 25 Jul 01:04:20 01:06:22 47° 147° (SSE) 01:08:25 437.275 MHz beacon
MaSat-1 25 Jul 01:15:29 01:18:06 15° 320° (NW) 01:20:54 437.345 MHz
PCSat 25 Jul 01:38:57 01:42:34 18° 105° (ESE) 01:46:11 145.825 MHz
Oscar 16 25 Jul 02:06:05 02:09:11 16° 90° (E) 02:12:17 437.025 USB, Beacon 2401.1428
ISS 25 Jul 02:08:19 02:11:23 35° 141° (SE) 02:14:29 145.800 FM
JAS-1B 25 Jul 02:14:36 02:15:54 10° 74° (ENE) 02:17:11 435.800 - 435.900 CW/SSB
AO-Echo 25 Jul 02:31:41 02:33:44 12° 86° (E) 02:35:45 ?
AO-40 25 Jul 02:34:51 04:34:21 17° 123° (ESE) 05:40:20 Beacon 2401.320
AO-27 25 Jul 02:35:59 02:38:27 13° 88° (E) 02:40:56 436.795 MHz FM
UOSAT-12 25 Jul 02:37:21 02:40:25 17° 250° (WSW) 02:43:27 437.025 FM, 437.400 FM
Lituanica SAT-1 25 Jul 02:37:26 02:39:08 20° 344° (NNW) 02:40:51 437.275 MHz beacon
Uribyol 2 25 Jul 02:38:19 02:41:10 15° 89° (E) 02:43:59 436.500 FM
Sapphire 25 Jul 02:46:09 02:51:28 61° 117° (ESE) 02:56:49 437.095 MHz 1200 baud AX-25 AFSK
RS-15 25 Jul 03:14:49 03:18:42 12° 266° (W) 03:22:39 29.354 - 29.394 USB, Beacon 29.352 USB
Oscar 19 25 Jul 03:16:17 03:21:26 66° 102° (ESE) 03:26:34 437.125 CW, 437.150 USB
PCSat 25 Jul 03:19:59 03:25:23 71° 304° (NW) 03:30:50 145.825 MHz
Oscar 16 25 Jul 03:43:55 03:49:03 70° 287° (WNW) 03:54:11 437.025 USB, Beacon 2401.1428
ISS 25 Jul 03:44:49 03:48:04 45° 339° (NNW) 03:51:20 145.800 FM
TMSAT-1 25 Jul 03:50:00 03:53:53 20° 91° (E) 03:57:44 436.925 FM
ITAMSAT 1 25 Jul 03:55:22 04:00:34 69° 103° (ESE) 04:05:43 435.822 SSB
JAS-1B 25 Jul 03:59:29 04:08:55 53° 97° (E) 04:17:08 435.800 - 435.900 CW/SSB
OPAL 25 Jul 04:06:08 04:10:48 44° 67° (ENE) 04:15:30 ?
AO-Echo 25 Jul 04:08:03 04:13:15 86° 285° (WNW) 04:18:14 ?
Gurwin Techsat 1B 25 Jul 04:10:41 04:15:43 41° 98° (E) 04:20:43 435.225 FM
Lituanica SAT-1 25 Jul 04:11:03 04:12:18 14° 4° (N) 04:13:34 437.275 MHz beacon
AO-27 25 Jul 04:13:24 04:18:38 82° 286° (WNW) 04:23:48 436.795 MHz FM
Uribyol 2 25 Jul 04:16:02 04:21:13 75° 287° (WNW) 04:26:21 436.500 FM
Sapphire 25 Jul 04:30:46 04:35:18 26° 317° (NW) 04:39:51 437.095 MHz 1200 baud AX-25 AFSK
Oscar 19 25 Jul 04:56:44 05:00:16 19° 300° (WNW) 05:03:48 437.125 CW, 437.150 USB
AO-7 25 Jul 04:58:33 05:05:10 25° 92° (E) 05:11:41 29.400 - 29.500 MHz
PCSat 25 Jul 05:06:24 05:09:49 17° 325° (NW) 05:13:15 145.825 MHz
ISS 25 Jul 05:22:27 05:25:20 25° 359° (N) 05:28:13 145.800 FM
Oscar 16 25 Jul 05:26:11 05:27:29 11° 306° (NW) 05:28:46 437.025 USB, Beacon 2401.1428
TMSAT-1 25 Jul 05:28:59 05:34:11 57° 289° (WNW) 05:39:20 436.925 FM
ITAMSAT 1 25 Jul 05:36:05 05:39:31 18° 301° (WNW) 05:42:57 435.822 SSB
Lituanica SAT-1 25 Jul 05:43:24 05:45:22 33° 22° (NNE) 05:47:20 437.275 MHz beacon
OPAL 25 Jul 05:45:55 05:49:53 24° 264° (W) 05:53:53 ?
AO-Echo 25 Jul 05:48:48 05:51:10 13° 304° (NW) 05:53:31 ?
JAS-1B 25 Jul 05:50:09 05:59:10 45° 299° (WNW) 06:07:14 435.800 - 435.900 CW/SSB
Gurwin Techsat 1B 25 Jul 05:51:00 05:55:31 29° 296° (WNW) 06:00:02 435.225 FM
AO-27 25 Jul 05:55:02 05:57:19 13° 305° (NW) 05:59:35 436.795 MHz FM
Uribyol 2 25 Jul 05:58:01 05:59:48 12° 305° (NW) 06:01:35 436.500 FM
Uosat F 25 Jul 06:01:04 06:06:07 72° 103° (ESE) 06:11:07 435.120 FM
MaSat-1 25 Jul 06:17:13 06:18:28 11° 34° (NE) 06:19:43 437.345 MHz
KITSAT 1 25 Jul 06:22:07 06:26:09 15° 99° (E) 06:30:10 435.175 FM
STRAND 1 25 Jul 06:22:57 06:26:54 23° 62° (ENE) 06:30:51 ?
Hamsat 25 Jul 06:28:55 06:30:16 11° 88° (E) 06:31:37 145.90 MHz
Oscar 10/S400 25 Jul 06:49:50 08:04:55 33° 240° (WSW) 12:00:46 145.825 - 145.975 CW/USB, Beacon 145.810 USB
AO-7 25 Jul 06:50:23 06:58:44 77° 292° (WNW) 07:07:00 29.400 - 29.500 MHz
ISS 25 Jul 06:59:25 07:02:38 40° 19° (NNE) 07:05:50 145.800 FM
JAS-2 25 Jul 07:11:03 07:16:16 28° 91° (E) 07:20:59 435.800 - 435.900 CW/SSB, 435.910 FM
Lituanica SAT-1 25 Jul 07:16:18 07:17:53 18° 220° (SW) 07:19:27 437.275 MHz beacon
Uosat F 25 Jul 07:41:12 07:44:20 17° 301° (WNW) 07:47:28 435.120 FM
JAS-1B 25 Jul 07:42:56 07:47:03 14° 322° (NW) 07:51:02 435.800 - 435.900 CW/SSB
MaSat-1 25 Jul 07:52:08 07:57:14 44° 55° (NE) 08:02:12 437.345 MHz
STRAND 1 25 Jul 08:00:43 08:05:44 53° 260° (W) 08:10:47 ?
Hamsat 25 Jul 08:02:27 08:06:43 73° 285° (WNW) 08:11:01 145.90 MHz
KITSAT 1 25 Jul 08:12:04 08:20:06 72° 118° (ESE) 08:28:10 435.175 FM
SO-67 25 Jul 08:16:00 08:18:52 23° 95° (E) 08:21:42 435.3500 MHz FM
ISS 25 Jul 08:36:11 08:39:23 42° 218° (SW) 08:42:35 145.800 FM
AO-7 25 Jul 08:44:32 08:50:15 21° 313° (NW) 08:55:56 29.400 - 29.500 MHz
JAS-2 25 Jul 08:55:40 09:01:41 47° 293° (WNW) 09:07:03 435.800 - 435.900 CW/SSB, 435.910 FM
Saudisat 1A 25 Jul 08:57:15 09:00:40 22° 113° (ESE) 09:04:05 436.775 MHz
MaSat-1 25 Jul 09:29:50 09:34:27 31° 254° (WSW) 09:38:55 437.345 MHz
SO-67 25 Jul 09:49:06 09:51:52 22° 291° (WNW) 09:54:37 435.3500 MHz FM
Sapphire 25 Jul 09:49:40 09:53:13 17° 35° (NE) 09:56:45 437.095 MHz 1200 baud AX-25 AFSK
UKube-1 25 Jul 09:59:29 10:02:02 15° 91° (E) 10:04:34 145.840 MHz, 145.915 MHz
KITSAT 1 25 Jul 10:08:52 10:16:10 36° 321° (NW) 10:23:30 435.175 FM
HO-68 25 Jul 10:14:35 10:21:12 39° 97° (E) 10:27:46 435.675 MHz FM
PCSat 25 Jul 10:23:04 10:27:42 28° 44° (NE) 10:32:18 145.825 MHz
Saudisat 1A 25 Jul 10:35:41 10:39:58 48° 311° (NW) 10:44:17 436.775 MHz
Oscar 11 25 Jul 10:48:22 10:52:00 26° 95° (E) 10:55:38 145.825 FM, Beacon 2401.500 USB
FUNcube-1 25 Jul 10:59:38 11:01:20 12° 89° (E) 11:03:01 145.950 - 145.970 MHz USB
Sapphire 25 Jul 11:32:09 11:37:36 75° 57° (ENE) 11:43:01 437.095 MHz 1200 baud AX-25 AFSK
UKube-1 25 Jul 11:34:19 11:38:36 56° 288° (WNW) 11:42:51 145.840 MHz, 145.915 MHz
HO-68 25 Jul 12:02:15 12:08:59 46° 296° (WNW) 12:15:40 435.675 MHz FM
PCSat 25 Jul 12:06:08 12:11:28 58° 244° (WSW) 12:16:45 145.825 MHz
KITSAT 1 25 Jul 12:09:21 12:14:24 17° 350° (N) 12:19:28 435.175 FM
Saudisat 1A 25 Jul 12:19:04 12:20:38 12° 333° (NNW) 12:22:13 436.775 MHz
Oscar 11 25 Jul 12:24:22 12:28:13 32° 292° (WNW) 12:32:03 145.825 FM, Beacon 2401.500 USB
FUNcube-1 25 Jul 12:34:03 12:38:10 63° 286° (WNW) 12:42:17 145.950 - 145.970 MHz USB
Oscar 19 25 Jul 12:58:24 13:01:37 17° 59° (ENE) 13:04:50 437.125 CW, 437.150 USB
JAS-1B 25 Jul 12:59:22 13:04:30 16° 41° (NE) 13:09:48 435.800 - 435.900 CW/SSB
RS-15 25 Jul 13:16:45 13:23:28 19° 98° (E) 13:30:06 29.354 - 29.394 USB, Beacon 29.352 USB
Sapphire 25 Jul 13:16:56 13:20:23 17° 255° (WSW) 13:23:50 437.095 MHz 1200 baud AX-25 AFSK
Oscar 16 25 Jul 13:24:39 13:29:00 29° 65° (ENE) 13:33:22 437.025 USB, Beacon 2401.1428
ITAMSAT 1 25 Jul 13:38:05 13:41:41 19° 60° (ENE) 13:45:18 435.822 SSB
AO-Echo 25 Jul 13:45:24 13:49:26 23° 62° (ENE) 13:53:29 ?
HO-68 25 Jul 13:53:47 13:54:56 10° 318° (NW) 13:56:05 435.675 MHz FM
AO-27 25 Jul 13:55:20 13:59:39 27° 63° (ENE) 14:03:58 436.795 MHz FM
Uribyol 2 25 Jul 13:57:34 14:01:59 29° 64° (ENE) 14:06:24 436.500 FM
Gurwin Techsat 1B 25 Jul 13:57:43 13:59:56 13° 55° (NE) 14:02:09 435.225 FM
KITSAT 1 25 Jul 14:07:45 14:13:29 20° 20° (NNE) 14:19:11 435.175 FM
AO-7 25 Jul 14:13:49 14:16:30 12° 36° (NE) 14:19:12 29.400 - 29.500 MHz
SO-50 25 Jul 14:26:20 14:30:39 49° 120° (ESE) 14:35:03 436.795 FM
Oscar 19 25 Jul 14:35:17 14:40:23 73° 257° (WSW) 14:45:31 437.125 CW, 437.150 USB
JAS-1B 25 Jul 14:44:12 14:52:41 53° 64° (ENE) 15:02:05 435.800 - 435.900 CW/SSB
Oscar 16 25 Jul 15:03:27 15:08:13 39° 262° (W) 15:13:01 437.025 USB, Beacon 2401.1428
UOSAT-12 25 Jul 15:12:15 15:13:53 12° 107° (ESE) 15:15:32 437.025 FM, 437.400 FM
TMSAT-1 25 Jul 15:12:27 15:17:19 38° 67° (ENE) 15:22:12 436.925 FM
ITAMSAT 1 25 Jul 15:15:29 15:20:41 66° 258° (WSW) 15:25:53 435.822 SSB
AO-Echo 25 Jul 15:22:35 15:27:47 57° 260° (W) 15:33:03 ?
RS-15 25 Jul 15:22:47 15:33:51 76° 120° (ESE) 15:44:44 29.354 - 29.394 USB, Beacon 29.352 USB
Gurwin Techsat 1B 25 Jul 15:33:44 15:39:02 78° 74° (ENE) 15:44:22 435.225 FM
AO-27 25 Jul 15:33:57 15:38:56 45° 261° (W) 15:43:57 436.795 MHz FM
Uribyol 2 25 Jul 15:36:24 15:41:18 41° 262° (W) 15:46:12 436.500 FM
Uosat F 25 Jul 15:39:48 15:43:07 18° 59° (ENE) 15:46:26 435.120 FM
AO-7 25 Jul 15:59:24 16:07:07 43° 59° (ENE) 16:14:50 29.400 - 29.500 MHz
KITSAT 1 25 Jul 16:03:12 16:11:04 51° 47° (NE) 16:18:51 435.175 FM
SO-50 25 Jul 16:07:39 16:11:27 26° 320° (NW) 16:15:20 436.795 FM
JAS-1B 25 Jul 16:35:03 16:43:16 45° 266° (W) 16:52:30 435.800 - 435.900 CW/SSB
UOSAT-12 25 Jul 16:48:40 16:53:17 90° 125° (SE) 16:58:01 437.025 FM, 437.400 FM
TMSAT-1 25 Jul 16:52:39 16:57:18 31° 265° (W) 17:01:58 436.925 FM
Uosat F 25 Jul 17:16:21 17:21:22 68° 257° (WSW) 17:26:26 435.120 FM
Gurwin Techsat 1B 25 Jul 17:16:43 17:19:37 15° 272° (W) 17:22:31 435.225 FM
Saudisat 1A 25 Jul 17:21:12 17:25:16 35° 45° (NE) 17:29:19 436.775 MHz
JAS-2 25 Jul 17:24:42 17:30:20 23° 57° (ENE) 17:35:43 435.800 - 435.900 CW/SSB, 435.910 FM
Hamsat 25 Jul 17:25:08 17:26:26 11° 60° (ENE) 17:27:45 145.90 MHz
RS-15 25 Jul 17:36:56 17:47:10 42° 326° (NNW) 17:57:24 29.354 - 29.394 USB, Beacon 29.352 USB
AO-7 25 Jul 17:51:45 17:59:47 50° 259° (W) 18:07:53 29.400 - 29.500 MHz
OPAL 25 Jul 17:52:13 17:57:16 72° 105° (ESE) 18:02:21 ?
KITSAT 1 25 Jul 17:58:52 18:06:24 45° 248° (WSW) 18:13:54 435.175 FM
UOSAT-12 25 Jul 18:30:49 18:34:06 19° 326° (NW) 18:37:26 437.025 FM, 437.400 FM
SO-67 25 Jul 18:52:40 18:54:09 12° 64° (ENE) 18:55:38 435.3500 MHz FM
Hamsat 25 Jul 18:57:37 19:01:47 80° 258° (WSW) 19:06:00 145.90 MHz
Saudisat 1A 25 Jul 19:00:54 19:04:49 31° 244° (WSW) 19:08:42 436.775 MHz
JAS-2 25 Jul 19:06:39 19:14:32 90° 75° (ENE) 19:22:00 435.800 - 435.900 CW/SSB, 435.910 FM
OPAL 25 Jul 19:32:20 19:35:37 18° 303° (WNW) 19:38:55 ?
RS-15 25 Jul 19:54:33 20:03:25 27° 0° (N) 20:12:21 29.354 - 29.394 USB, Beacon 29.352 USB
STRAND 1 25 Jul 20:09:16 20:14:11 45° 99° (E) 20:19:02 ?
SO-67 25 Jul 20:23:28 20:26:49 47° 261° (W) 20:30:12 435.3500 MHz FM
HO-68 25 Jul 20:45:22 20:51:48 37° 61° (ENE) 20:58:14 435.675 MHz FM
JAS-2 25 Jul 20:54:53 21:00:18 20° 272° (W) 21:05:34 435.800 - 435.900 CW/SSB, 435.910 FM
UKube-1 25 Jul 20:57:02 21:00:04 19° 62° (ENE) 21:03:06 145.840 MHz, 145.915 MHz
SO-50 25 Jul 21:16:13 21:19:20 17° 33° (NNE) 21:22:29 436.795 FM
Oscar 11 25 Jul 21:45:31 21:49:08 27° 67° (ENE) 21:52:46 145.825 FM, Beacon 2401.500 USB
STRAND 1 25 Jul 21:48:58 21:53:08 26° 297° (WNW) 21:57:17 ?
FUNcube-1 25 Jul 21:58:12 22:00:36 15° 62° (ENE) 22:02:59 145.950 - 145.970 MHz USB
RS-15 25 Jul 22:09:21 22:19:38 42° 34° (NE) 22:30:08 29.354 - 29.394 USB, Beacon 29.352 USB
UKube-1 25 Jul 22:31:41 22:35:55 49° 260° (W) 22:40:12 145.840 MHz, 145.915 MHz
HO-68 25 Jul 22:32:26 22:39:20 49° 260° (W) 22:46:16 435.675 MHz FM
SO-50 25 Jul 22:55:53 23:00:39 80° 54° (NE) 23:05:28 436.795 FM
Oscar 11 25 Jul 23:21:25 23:25:14 31° 264° (W) 23:29:05 145.825 FM, Beacon 2401.500 USB
MaSat-1 25 Jul 23:22:32 23:26:34 87° 298° (WNW) 23:31:20 437.345 MHz
FUNcube-1 25 Jul 23:32:14 23:36:34 62° 259° (W) 23:40:48 145.950 - 145.970 MHz USB
UOSAT-12 25 Jul 23:36:55 23:40:48 24° 39° (NE) 23:44:38 437.025 FM, 437.400 FM
RS-15 26 Jul 00:21:58 00:32:57 75° 240° (WSW) 00:44:19 29.354 - 29.394 USB, Beacon 29.352 USB
SO-50 26 Jul 00:38:04 00:40:38 15° 251° (WSW) 00:43:12 436.795 FM
